Location: Izdebno
(52.6670°N, 16.2170°E)
Time: 03:43:00
(UTC+02:00)

Transit 4A - Pass Details

Date: 22 February 2024
Orbit: 871 x 972 km, 66.8° (Epoch: 22 April)

Event Time Altitude Azimuth Distance (km) Brightness Sun altitude
Rises 04:27:36 0° 259° (W) 3,587 - -23.5°
Reaches altitude 10° 04:30:27 10° 269° (W) 2,628 - -23.1°
Exits shadow 04:34:39 29° 310° (NW) 1,602 8.8 -22.4°
Maximum altitude 04:35:51 32° 332° (NNW) 1,525 8.9 -22.3°
Drops below altitude 10° 04:41:09 10° 34° (NE) 2,575 10.8 -21.5°
Sets 04:43:55 0° 45° (NE) 3,503 11.8 -21.1°
